User: anonymous   Login
Location: Champs
(48.8539°N, 2.6040°E)
Time: 03:00:38
(UTC+00:00)
Language:

Meteor PRIRODA - Orbit

View from above orbital plane
View from above orbital plane
View from above satellite
View from above satellite

Ground track
Ground track

The orbit data is extracted from the following two-line orbital elements,

1 12585U 81065A   22019.50389443  .00003088  00000-0  13458-3 0  9994
2 12585  97.5817  22.7950 0012323 302.3678  57.6365 15.22918160211499
Epoch (UTC): 19 January 2022 12:05:36
Eccentricity: 0.0012323
inclination: 97.5817°
perigee height: 488 km
apogee height: 505 km
right ascension of ascending node: 22.7950°
argument of perigee: 302.3678°
revolutions per day: 15.22918160
mean anomaly at epoch: 57.6365°
orbit number at epoch: 21149

The dashed part of the orbit path shows where the satellite is in the earth's shadow,  

DLR